Torna al catalogo

FENGYUN 1C DEB

AttivoPO
NORAD 31754·DEBRIS·🇨🇳 China

Lanciato May 10, 1999 da Taiyuan Satellite Launch Center

Loading…

Prossimi Passaggi (prossime 24 ore)

TLE

AggiornatoSource: Space-Track

Epoca: Sep 13, 2026, 04:28 UTC

1 31754U 99025CFD 26256.18612602  .00001659  00000-0  49390-3 0  9991
2 31754  99.0626 243.5214 0049835 124.0491 236.5444 14.43875808  9145

Traccia FENGYUN 1C DEB in tempo reale con AllMySat

Download on the App Store